Regional Weather Roundup
Issued by NWS Memphis, TN

Home | Current Version | Previous Version | Text Only | Print | Product List | Glossary On
Versions: 1 2 3 4 5 6 7 8 9 10 11 12 13 14 15 16 17 18 19 20 21 22 23 24 25 26 27 28 29 30 31 32 33 34 35 36 37 38 39 40 41 42 43 44 45 46 47 48 49 50
000
ASUS44 KMEG 280710
RWRMEG
MEMPHIS CWA HOURLY WEATHER ROUNDUP
NATIONAL WEATHER SERVICE MEMPHIS TN
200 AM CDT FRI JUL 28 2017

...WEST TENNESSEE...

CITY           SKY/WX    TMP DP  RH WIND       PRES   REMARKS
MEMPHIS INTL   MOCLDY    81  79  94 SW8       29.87F HX  90
NWS MEMPHIS      N/A     79 N/A N/A MISG        N/A
JACKSON        CLOUDY    77  76  96 S5        29.87F
COVINGTON      CLOUDY    77  75  94 CALM      29.86F
SOMERVILLE       N/A     79  77  94 S5        29.87S
BOLIVAR        CLOUDY    77  75  94 CALM      29.87F
LEXINGTON      MOCLDY    75  73  94 S7        29.87F
SAVANNAH       CLOUDY    75  75 100 VRB3      29.88F
UNION CITY       N/A     77  75  94 CALM      29.85F
PARIS          CLOUDY    75  75 100 CALM      29.86F
HUNTINGDON     CLOUDY    75  75 100 S5        29.86F


...EASTERN ARKANSAS...

CITY           SKY/WX    TMP DP  RH WIND       PRES   REMARKS
JONESBORO      MOCLDY    79  77  94 SW7       29.85F
WEST MEMPHIS   CLOUDY    80  79  96 SW7       29.85F
BATESVILLE     CLOUDY    79  73  83 SW6       29.86F
WALNUT RIDGE   CLOUDY    77  72  83 S3        29.85F
BLYTHEVILLE    CLOUDY    78  76  93 SW3       29.85F
SEARCY         CLOUDY    76  76 100 SW8       29.88F
STUTTGART      CLOUDY    81  64  57 N6        29.90F
PINE BLUFF     CLOUDY    81  75  82 SW3       29.89S
MONTICELLO     MOCLDY    83  73  72 SW8       29.90S


...NORTH MISSISSIPPI...

CITY           SKY/WX    TMP DP  RH WIND       PRES   REMARKS
TUPELO         CLOUDY    81  72  74 SW3       29.90F
OXFORD         LGT RAIN  77  73  88 SW6       29.92F
BATESVILLE     CLOUDY    80  76  88 SW5       29.90S
TUNICA           N/A     79  77  94 S5        29.89S
CLARKSDALE       N/A     82  81  94 S5        29.90R HX  95
CORINTH        CLOUDY    75  73  94 CALM      29.89S
GREENWOOD      CLOUDY    80  74  81 SW8       29.90F
COLUMBUS       CLOUDY    80  77  91 SW5       29.90
STARKVILLE     PTCLDY    77  73  88 CALM      29.93S
GOLDEN TRIANGL PTCLDY    81  70  69 SW5         N/A


...SOUTHEAST MISSOURI...

CITY           SKY/WX    TMP DP  RH WIND       PRES   REMARKS
KENNETT        CLOUDY    77  75  94 SW6       29.83F
MALDEN         MOCLDY    79  75  89 CALM      29.85F
WEST PLAINS    CLOUDY    76  74  93 CALM      29.91F
POPLAR BLUFF   CLOUDY    78  77  96 CALM      29.84F
CAPE GIRARDEAU CLOUDY    77  74  90 CALM      29.83F


...NORTHWEST ALABAMA...

CITY           SKY/WX    TMP DP  RH WIND       PRES   REMARKS
MUSCLE SHOALS  HVY RAIN  76  72  87 N3        29.93R


...MIDDLE TENNESSEE...

CITY           SKY/WX    TMP DP  RH WIND       PRES   REMARKS
NASHVILLE      CLOUDY    76  72  87 W6        29.89F
CLARKSVILLE    CLOUDY    75  72  90 SW3       29.87F
COLUMBIA       CLOUDY    77  73  88 W6        29.88F


...WESTERN KENTUCKY...

CITY           SKY/WX    TMP DP  RH WIND       PRES   REMARKS
PADUCAH        PTCLDY    78  74  87 SW6       29.83F
FORT CAMPBELL  CLOUDY    75  74  99 S5        29.86F


...CENTRAL ARKANSAS...

CITY           SKY/WX    TMP DP  RH WIND       PRES   REMARKS
LITTLE ROCK    CLOUDY    83  77  82 S6        29.88F HX  92


SKY/WX REPORTED AS FAIR MEANS FEW OR NO CLOUDS BELOW
12 THOUSAND FEET.





USA.gov is the U.S. government's official web portal to all federal, state and local government web resources and services.